Temperature
10 11 11 11 11 11 11 11 11 11 11 11 11 11 11 11 11 11 11 11 11 11 11 11 11 11 11 11 11 11 11 11 11 11 11 11 11 11 11 11 11 11 11
10 10 11 11 11 11 11 11 11 11 11 11 11 11 11 11 11 11 11 11 11 11 11 11 11 11 11 11 11 10 10 10 10 10 10 10 10 10 11 11 11 11 11
10 10 10 11 11 11 11 10 11 11 10 10 10 10 10 10 10 10 10 11 11 11 11 11 11 11 11 10 10 10 10 10 10 10 9 10 10 10 10 10 10 10 10
9 10 10 10 10 10 10 10 10 10 10 10 10 10 10 10 10 10 10 10 10 10 10 10 10 10 10 10 10 10 10 9 9 9 9 9 9 9 9 9 9 10 10
9 9 9 10 10 10 10 10 10 10 10 10 10 10 10 10 10 10 10 10 10 10 10 10 10 10 10 10 10 10 9 9 9 9 9 9 9 8 8 8 9 9 9
9 9 9 10 10 10 10 10 10 10 10 10 10 10 10 9 10 9 9 10 10 9 10 9 9 9 9 9 9 9 9 9 9 8 8 8 8 8 8 8 8 8 8
8 9 9 9 9 9 10 10 10 10 10 10 10 10 9 9 9 9 9 9 9 9 9 9 9 9 9 9 9 9 9 8 8 8 8 8 8 8 7 7 7 7 8
8 8 9 9 9 9 9 10 10 10 10 10 10 9 9 9 9 9 9 9 9 9 9 9 9 9 9 8 8 8 8 8 8 8 8 8 8 7 7 7 7 6 7
8 8 9 9 9 9 9 9 9 9 9 9 9 9 9 9 9 9 9 9 9 9 8 8 8 8 8 8 8 8 7 7 7 8 8 7 7 7 7 7 6 6 6
7 8 8 9 9 9 9 9 9 9 9 9 9 9 9 9 9 9 9 8 8 8 8 8 8 8 8 8 8 7 7 7 7 7 7 7 7 7 7 7 6 6 6
7 8 8 8 8 8 8 9 9 9 9 9 9 9 8 8 8 8 8 8 8 8 8 8 8 8 8 7 7 7 7 7 7 7 7 7 7 6 6 6 6 6 6
7 7 7 8 8 8 8 8 8 8 8 8 8 8 8 8 8 8 8 8 8 8 7 7 7 7 7 7 7 7 6 6 6 6 6 6 6 6 6 6 6 6 5
7 7 7 7 7 7 8 8 8 8 8 8 8 8 8 8 7 7 7 7 7 7 7 7 7 7 7 6 6 6 6 6 6 6 6 6 6 6 6 5 5 5 5
6 6 7 7 7 7 7 7 7 7 7 7 7 7 7 7 7 7 7 7 7 7 7 7 7 6 6 6 6 6 6 6 6 6 6 5 5 5 5 5 5 5 5
6 6 6 6 6 6 6 7 6 6 6 6 6 7 6 6 6 6 6 6 6 6 6 6 6 6 6 6 6 6 6 6 5 5 5 5 5 5 5 5 5 5 4
6 6 5 5 6 6 6 6 6 6 6 6 6 6 6 6 6 6 6 6 6 6 6 6 6 6 6 6 5 5 5 5 5 5 5 5 5 5 4 4 4 4 4
5 5 5 5 5 5 5 5 5 5 5 5 5 5 5 5 5 5 5 5 5 5 5 5 5 5 5 5 5 5 4 4 4 4 4 4 4 4 4 4 4 4 4
5 5 5 4 4 4 5 5 5 5 5 5 5 5 5 5 5 5 5 5 4 4 5 5 5 5 5 5 4 4 4 4 3 3 3 3 3 3 3 3 3 3 3
4 4 4 4 4 4 4 4 4 4 4 4 4 4 4 4 4 4 4 4 4 4 4 4 4 4 4 4 4 3 3 3 3 3 3 3 3 3 3 3 3 3 3
4 3 3 3 3 3 3 3 3 3 3 3 3 3 3 3 3 3 3 3 3 3 3 3 4 3 3 3 3 3 2 2 2 2 3 3 2 2 2 2 2 2 2
3 3 3 3 3 3 3 3 3 3 3 3 3 3 3 3 3 3 3 3 3 3 3 3 3 3 3 3 3 2 2 2 2 2 2 2 2 2 2 2 1 2 2
2 2 2 2 2 2 2 2 2 3 2 2 2 2 2 2 2 2 2 2 2 2 2 2 2 2 2 2 2 2 1 1 1 1 1 1 1 1 1 1 1 1 1
2 2 2 2 2 2 2 2 2 2 2 2 2 2 2 2 2 2 2 2 2 1 1 1 1 1 1 1 1 1 1 1 1 1 1 1 1 1 1 0 1 1 0
1 1 1 1 1 1 1 1 1 1 1 1 1 1 1 1 1 1 1 1 1 1 1 1 1 1 1 1 0 0 0 0 0 0 -0 -0 -0 -0 -0 -0 -0 -0 0
1 1 0 1 1 1 1 1 1 1 0 0 0 0 0 0 0 0 1 1 1 0 0 0 0 -0 0 0 -0 -0 -0 -0 -0 -1 -1 -1 -1 -1 -1 -0 -1 -1 -1
0 0 -0 -0 0 0 0 0 0 -0 -0 -0 -0 -0 -1 -0 -0 -0 -0 0 0 0 -0 -0 -0 -1 -0 -0 -0 -1 -1 -1 -1 -1 -1 -1 -1 -1 -1 -1 -1 -1 -1
Wind_Speed
1 1 1 2 3 3 3 3 3 2 3 2 2 2 2 2 2 2 2 2 1 2 2 2 2 2 2 2 2 2 2 2 2 2 4 4 5 5 4 4 5 5 5
1 1 1 1 2 2 2 2 2 2 2 2 2 2 1 1 1 1 1 1 1 2 2 2 2 2 2 2 2 2 2 2 2 2 3 3 4 4 4 4 4 4 4
3 2 1 2 2 2 3 2 3 3 3 3 3 3 2 1 2 2 1 0 1 2 2 2 2 2 2 2 2 2 3 3 2 3 3 3 4 3 3 4 4 4 4
2 2 2 2 2 2 1 1 3 4 4 4 3 4 3 2 2 1 1 1 1 1 2 2 2 2 2 2 3 3 3 4 3 3 4 5 4 4 4 3 3 4 4
2 2 2 2 1 0 1 1 3 3 4 4 4 4 3 2 1 1 1 1 1 2 2 3 2 2 2 2 3 3 3 3 4 4 3 4 4 5 5 6 5 4 4
2 2 2 2 2 1 1 1 3 3 3 4 4 5 4 3 2 2 1 1 1 1 2 2 2 2 2 3 3 3 4 4 5 4 4 4 4 5 5 6 7 6 5
3 2 2 2 2 1 1 1 2 3 3 4 4 4 4 4 4 3 3 2 2 1 2 2 2 2 3 3 4 4 4 5 5 5 5 5 5 5 5 6 6 7 5
2 2 2 2 1 1 1 1 2 2 3 3 3 3 3 3 3 4 3 3 2 2 3 3 3 3 3 4 4 4 4 5 5 6 6 5 5 5 5 5 5 6 6
1 1 1 1 1 1 1 1 2 2 2 2 2 3 3 3 4 3 3 3 3 3 4 4 4 3 4 4 4 4 5 5 5 5 6 5 5 5 5 5 5 6 6
2 2 1 1 0 0 0 1 1 1 1 1 2 2 3 3 3 3 4 4 4 3 3 4 4 4 4 4 4 4 5 5 5 5 6 6 5 5 5 5 5 6 7
3 3 2 2 1 0 0 1 1 1 1 1 2 2 2 2 3 3 4 4 4 4 4 4 4 4 4 5 5 5 5 6 6 6 7 7 7 6 5 5 5 6 6
2 2 2 2 1 1 1 1 1 1 1 1 2 2 2 2 3 4 4 4 4 4 4 4 5 5 5 5 6 6 6 7 7 7 7 8 6 7 6 6 6 6 6
2 2 2 2 2 2 2 2 1 1 1 1 1 2 2 3 3 4 4 4 4 4 4 5 5 6 6 6 7 7 7 8 8 8 8 8 8 8 7 7 7 6 6
3 3 3 3 2 2 2 2 2 2 2 2 2 3 3 3 3 3 4 4 4 4 5 5 6 6 6 6 7 7 8 8 8 8 9 9 9 9 9 8 8 7 7
5 5 4 4 3 3 2 2 3 3 3 3 3 3 4 3 3 3 4 4 4 4 4 5 5 6 6 6 7 7 8 8 8 8 9 9 9 9 9 8 8 7 7
7 6 5 4 4 4 3 3 3 3 3 4 4 4 4 4 4 4 4 4 4 4 5 5 5 6 5 7 8 8 8 8 9 9 9 9 9 10 12 12 11 10 9
7 7 6 6 5 4 4 3 3 3 4 4 5 4 4 5 5 4 4 5 5 5 5 6 6 7 7 8 9 9 8 9 9 9 8 7 7 9 9 10 11 12 13
6 6 6 5 4 4 4 3 3 3 4 5 5 5 5 5 5 5 5 5 5 5 6 6 7 7 7 8 9 10 9 9 9 9 10 9 9 8 8 8 9 9 10
6 5 5 5 4 4 4 4 4 4 5 5 6 6 5 6 6 6 6 6 6 6 6 7 7 8 8 8 9 9 7 8 9 9 9 10 10 9 9 9 9 9 9
5 4 4 4 5 5 4 5 5 6 6 6 6 6 6 6 7 7 7 6 6 7 7 7 7 8 9 9 10 10 7 8 8 8 9 10 12 11 10 10 9 10 9
5 5 5 5 5 5 5 6 6 7 7 7 7 7 7 7 7 7 7 6 6 7 7 8 8 8 9 9 10 10 8 8 8 8 7 8 10 12 12 11 10 10 8
6 6 5 6 6 6 6 7 8 8 7 7 7 8 8 7 6 7 7 7 7 7 8 8 8 7 8 9 9 11 11 10 9 9 8 7 9 11 12 10 10 10 8
6 6 6 7 6 6 7 8 9 8 7 8 8 8 8 8 7 7 8 7 7 7 7 7 8 8 7 7 10 12 13 12 10 8 9 10 10 10 10 11 11 9 7
6 6 6 7 7 7 7 8 9 8 8 8 9 8 8 8 8 7 7 7 7 7 8 8 8 8 8 7 7 7 8 9 9 8 9 11 11 10 9 8 7 7 6
7 7 7 8 9 9 9 9 8 8 8 9 9 9 8 9 8 8 8 9 9 9 9 9 9 9 10 9 10 9 8 7 7 7 6 6 6 7 6 6 6 5 5
8 8 8 9 10 10 10 9 8 8 9 9 9 8 7 7 7 8 8 10 12 13 14 14 13 11 13 14 14 14 14 13 12 9 7 8 7 8 7 6 6 6 6
Wind_Direction
271 44 102 131 131 133 145 142 138 132 143 136 141 150 145 134 145 160 162 173 186 195 188 198 201 198 203 210 220 249 251 262 276 267 271 267 259 254 252 251 249 244 245
200 138 119 121 141 151 155 162 159 155 149 138 140 142 140 143 143 147 126 145 199 200 200 199 199 199 203 208 215 225 253 262 253 258 270 269 256 249 252 250 248 251 248
216 191 175 169 173 183 183 178 182 180 164 148 143 141 145 168 177 179 154 62 282 195 193 195 195 204 213 218 228 226 233 243 246 249 255 260 261 288 252 255 255 258 259
217 204 197 184 191 208 197 197 180 175 165 163 163 162 172 182 201 185 153 202 236 210 188 198 200 199 211 224 228 228 238 238 240 245 254 267 278 272 277 254 255 267 265
200 194 196 186 164 155 163 173 156 163 165 172 173 178 189 191 180 176 189 211 224 239 212 206 207 208 215 227 233 234 237 238 243 246 249 254 259 255 261 272 277 274 269
182 178 163 140 115 100 116 154 155 165 169 176 183 187 193 195 190 200 208 230 249 249 222 216 216 222 225 227 231 230 236 239 242 247 247 248 250 249 252 263 276 280 279
167 157 148 147 135 131 144 167 166 174 177 182 191 194 199 201 207 218 221 230 243 253 245 231 226 227 229 233 234 234 238 241 241 243 249 252 256 260 261 266 274 281 283
178 173 172 174 165 158 181 190 190 195 193 196 200 204 204 207 214 220 225 233 244 255 257 246 241 240 238 237 236 241 244 244 245 249 252 254 255 254 252 255 267 278 275
205 205 196 200 200 204 215 215 201 213 218 219 214 217 216 215 221 225 228 234 236 242 243 238 238 240 238 239 240 243 246 246 249 250 251 253 256 255 253 251 250 259 274
232 240 249 259 255 251 230 204 203 210 225 224 220 220 224 224 227 231 234 236 240 237 237 239 237 241 244 244 243 246 250 248 249 249 251 253 253 252 249 247 248 249 258
238 241 253 266 264 277 229 224 222 210 233 240 232 224 229 228 229 233 240 243 244 236 234 241 244 248 251 249 246 248 252 251 253 250 250 253 254 254 251 247 244 245 249
249 249 253 257 260 264 261 249 249 245 257 255 247 240 238 234 242 246 247 246 246 246 243 242 244 248 250 250 248 249 249 251 254 254 251 252 250 250 251 249 245 244 245
240 241 244 245 253 261 264 263 263 266 272 262 252 250 246 240 247 257 258 252 251 253 250 243 243 246 248 248 248 249 252 253 255 255 252 252 250 250 247 247 247 246 246
248 250 250 248 253 257 270 281 284 287 285 273 261 258 260 256 255 258 257 253 251 253 254 251 251 251 251 250 251 251 253 255 255 254 253 252 250 251 250 247 246 245 246
249 247 252 253 252 258 269 279 281 283 277 269 264 264 270 268 262 261 263 261 258 259 261 261 260 257 253 250 251 253 253 255 257 256 253 252 251 254 253 249 247 243 243
248 248 254 257 252 256 268 270 272 273 270 267 266 267 271 272 268 267 269 266 263 263 263 260 260 259 256 257 256 259 258 256 255 257 258 255 250 248 247 247 248 245 243
255 250 250 251 250 255 262 267 274 272 268 268 271 272 270 271 271 269 266 265 267 268 266 265 262 262 263 259 260 259 259 257 256 256 258 257 251 246 249 245 242 243 242
258 257 254 254 257 261 263 267 273 273 270 270 273 276 272 270 271 268 266 269 270 266 265 265 264 264 264 263 263 264 260 258 256 254 254 256 257 250 248 250 248 247 244
265 264 259 257 262 266 267 266 269 271 270 271 274 275 271 267 268 267 267 269 268 267 266 265 264 264 266 262 263 265 263 259 257 256 254 254 255 251 246 248 250 252 251
272 266 262 258 261 267 265 257 263 265 266 269 272 272 268 262 263 266 268 268 265 266 268 266 263 263 265 263 260 261 259 259 260 258 254 248 251 253 246 246 247 250 252
279 273 266 261 262 266 259 256 262 266 270 273 272 270 266 263 263 265 266 266 265 266 265 266 266 263 262 260 257 256 255 257 260 259 256 251 247 251 248 247 247 248 249
283 277 270 266 266 263 257 259 264 270 273 272 270 270 269 268 264 262 263 262 261 262 265 266 269 266 262 259 257 254 254 258 258 259 258 255 252 254 251 248 247 244 240
281 278 273 275 273 267 260 262 270 274 272 270 271 272 272 269 263 259 259 258 256 256 261 263 267 270 269 264 259 258 257 255 255 259 257 259 257 255 253 246 240 233 230
284 281 275 272 274 273 267 265 272 271 267 268 271 271 269 269 265 260 254 253 253 254 257 260 264 269 269 266 263 261 258 254 256 258 257 253 252 247 245 241 234 230 227
285 281 275 275 278 282 278 275 273 269 266 268 270 269 266 266 266 262 257 254 253 251 254 260 261 264 266 263 260 263 261 256 256 258 256 252 248 244 237 232 228 224 221
283 280 277 277 279 282 281 279 275 268 264 266 267 267 265 264 264 267 269 252 249 256 255 256 259 263 264 269 266 264 263 262 259 255 249 246 243 241 236 230 227 224 223
Height
1488 1488 1488 1489 1489 1490 1491 1492 1493 1493 1493 1494 1495 1497 1498 1500 1502 1503 1503 1504 1505 1506 1508 1509 1509 1510 1510 1511 1511 1512 1512 1512 1512 1513 1513 1512 1512 1511 1511 1510 1510 1510 1510
1487 1487 1487 1487 1487 1489 1489 1491 1491 1492 1493 1493 1495 1496 1497 1498 1500 1500 1501 1502 1503 1504 1505 1506 1507 1507 1507 1508 1508 1509 1509 1509 1510 1510 1510 1510 1510 1508 1507 1507 1506 1506 1506
1486 1486 1486 1487 1487 1488 1489 1490 1490 1490 1491 1492 1493 1494 1496 1496 1497 1498 1498 1499 1500 1501 1502 1503 1504 1504 1505 1505 1506 1506 1507 1507 1507 1508 1509 1509 1507 1506 1505 1503 1503 1503 1502
1485 1485 1486 1485 1486 1486 1486 1487 1488 1488 1489 1491 1491 1493 1494 1495 1496 1496 1496 1498 1498 1499 1499 1500 1501 1501 1502 1503 1503 1503 1504 1504 1504 1505 1505 1506 1505 1504 1502 1501 1500 1499 1499
1484 1485 1485 1485 1485 1485 1485 1486 1486 1487 1488 1489 1490 1492 1493 1494 1494 1494 1495 1496 1495 1496 1497 1498 1498 1499 1499 1500 1500 1500 1501 1501 1501 1501 1501 1501 1501 1501 1501 1498 1497 1496 1495
1483 1483 1484 1484 1484 1485 1485 1486 1486 1487 1488 1488 1489 1490 1491 1492 1492 1493 1493 1493 1494 1494 1494 1495 1495 1496 1496 1497 1497 1497 1498 1498 1498 1498 1498 1498 1498 1497 1497 1495 1494 1493 1492
1482 1482 1482 1483 1483 1484 1484 1485 1485 1486 1487 1487 1488 1489 1490 1490 1490 1491 1491 1491 1491 1491 1491 1492 1493 1493 1493 1494 1494 1494 1494 1494 1494 1494 1494 1494 1494 1494 1493 1492 1490 1489 1488
1481 1482 1482 1483 1483 1483 1484 1484 1484 1484 1485 1486 1486 1487 1487 1488 1489 1489 1489 1489 1489 1489 1489 1489 1489 1490 1490 1491 1491 1491 1491 1491 1491 1491 1491 1490 1490 1490 1489 1489 1488 1486 1484
1480 1481 1481 1482 1482 1482 1483 1483 1483 1483 1483 1483 1484 1485 1485 1486 1486 1487 1487 1487 1487 1486 1486 1486 1486 1486 1487 1487 1487 1487 1487 1487 1487 1487 1487 1486 1486 1485 1485 1484 1484 1485 1482
1480 1480 1480 1480 1480 1481 1481 1481 1481 1481 1482 1482 1482 1483 1483 1484 1484 1484 1484 1484 1484 1483 1483 1483 1483 1483 1483 1483 1483 1483 1483 1483 1483 1483 1483 1482 1482 1481 1481 1480 1480 1479 1479
1479 1478 1478 1478 1479 1479 1479 1479 1479 1479 1480 1480 1480 1481 1481 1481 1481 1481 1481 1481 1481 1481 1480 1480 1480 1479 1479 1479 1479 1479 1479 1480 1479 1479 1478 1478 1478 1477 1476 1476 1475 1475 1474
1477 1477 1477 1477 1477 1477 1477 1477 1477 1477 1477 1478 1478 1478 1478 1478 1478 1478 1478 1478 1478 1477 1477 1476 1476 1476 1476 1476 1475 1475 1475 1475 1475 1474 1474 1474 1473 1472 1472 1471 1471 1470 1469
1476 1475 1475 1475 1475 1475 1474 1475 1474 1474 1475 1475 1475 1475 1475 1475 1475 1474 1474 1474 1474 1474 1473 1473 1472 1472 1472 1472 1471 1471 1471 1471 1470 1470 1469 1469 1468 1467 1467 1466 1466 1465 1465
1474 1473 1473 1472 1472 1472 1472 1472 1472 1472 1472 1472 1472 1472 1472 1471 1471 1471 1471 1470 1470 1470 1469 1469 1468 1468 1467 1467 1467 1467 1466 1466 1465 1465 1464 1463 1463 1462 1462 1461 1461 1460 1460
1471 1471 1470 1470 1469 1469 1469 1469 1469 1469 1469 1469 1468 1468 1468 1467 1467 1467 1467 1466 1466 1465 1465 1464 1464 1463 1463 1462 1462 1462 1461 1460 1460 1459 1458 1458 1457 1457 1457 1456 1455 1455 1454
1467 1467 1467 1467 1467 1466 1466 1466 1465 1465 1465 1465 1464 1464 1464 1463 1463 1462 1462 1461 1461 1460 1460 1459 1458 1458 1458 1457 1457 1456 1455 1454 1454 1453 1452 1452 1451 1451 1451 1450 1450 1450 1449
1463 1463 1463 1463 1463 1463 1463 1462 1462 1462 1461 1461 1460 1460 1459 1459 1458 1458 1457 1456 1456 1455 1455 1454 1453 1453 1452 1452 1451 1450 1450 1449 1448 1447 1446 1446 1445 1445 1444 1444 1443 1443 1443
1459 1459 1459 1460 1460 1459 1459 1459 1458 1458 1457 1457 1456 1455 1455 1454 1454 1453 1452 1452 1451 1450 1449 1449 1448 1447 1447 1446 1445 1445 1444 1443 1442 1441 1440 1440 1439 1438 1438 1438 1437 1437 1437
1456 1456 1456 1456 1456 1456 1455 1455 1454 1454 1453 1452 1451 1451 1450 1449 1449 1448 1448 1447 1446 1445 1444 1443 1442 1441 1440 1440 1439 1439 1437 1436 1435 1435 1434 1433 1433 1432 1432 1432 1431 1430 1430
1452 1452 1452 1452 1452 1452 1451 1451 1450 1449 1449 1448 1447 1446 1445 1445 1444 1443 1443 1442 1441 1439 1438 1437 1437 1436 1435 1434 1434 1433 1431 1430 1429 1428 1427 1427 1427 1426 1426 1425 1425 1424 1424
1449 1448 1448 1448 1448 1448 1447 1446 1445 1445 1444 1443 1442 1441 1440 1439 1439 1438 1437 1436 1435 1434 1433 1432 1431 1430 1429 1428 1427 1427 1425 1424 1423 1422 1421 1421 1420 1420 1419 1419 1419 1418 1419
1445 1445 1444 1444 1443 1443 1442 1441 1440 1440 1439 1438 1437 1436 1435 1434 1433 1432 1431 1431 1430 1428 1427 1426 1425 1424 1423 1422 1421 1420 1419 1418 1417 1415 1414 1414 1414 1413 1413 1413 1412 1413 1413
1442 1441 1440 1439 1439 1438 1437 1436 1435 1434 1433 1432 1431 1430 1429 1428 1427 1426 1425 1424 1424 1422 1421 1420 1418 1417 1416 1415 1414 1413 1412 1411 1410 1409 1408 1407 1407 1407 1406 1406 1406 1407 1407
1438 1437 1436 1434 1434 1433 1432 1431 1430 1428 1427 1426 1425 1424 1423 1421 1421 1420 1419 1418 1417 1416 1415 1413 1412 1410 1409 1408 1407 1406 1405 1404 1403 1402 1401 1401 1400 1400 1400 1400 1400 1400 1400
1433 1432 1431 1429 1429 1428 1426 1425 1424 1422 1421 1419 1418 1417 1416 1415 1414 1413 1412 1411 1410 1409 1408 1407 1405 1404 1402 1401 1401 1399 1398 1397 1397 1396 1395 1394 1394 1393 1393 1393 1393 1394 1394
1428 1427 1426 1425 1423 1422 1420 1419 1418 1417 1415 1413 1412 1411 1409 1408 1407 1405 1404 1403 1403 1402 1401 1399 1398 1396 1395 1394 1393 1392 1391 1391 1390 1389 1388 1387 1387 1387 1386 1386 1387 1387 1388